Weather in Bușteni

Romania     45°24′31″N   25°32′06″E
temp.,
°C
wind,
m/s
gust,
m/s
humid.,
%
clouds,
%
prec.,
mm/h
press.,
hPa
HPBL,
m
24 january, mon
mon2423:00−17se019968 0.3 103230
02:00−16sw019793 0.4 103427
05:00−15nnw149895 0.1 1034119
08:00−15nnw249998 0.4 1036132
11:00−12n348795 0.1 1036520
14:00−11n348494 0.2 1035634
17:00−12nnw2495100 0.0 1036195
20:00−15nnw1297100 0.0 103868
25 january, tue
tue2523:00−15w1195100 0.0 103839
02:00−15w1193100 0.0 103746
05:00−18ssw129414 0.0 103828
08:00−18ssw12935 0.0 103726
11:00−11n35753 0.0 1034349
14:00−10n3476100 0.0 1031391
17:00−14n1395100 0.0 103265
20:00−15nnw029782 0.0 103354
26 january, wed
wed2623:00−14nw019793 0.1 103250
02:00−13nnw139798 0.4 103085
05:00−12n139797 0.4 102895
08:00−11n139698 0.9 1028115
11:00−8n2492100 0.6 1027300
14:00−7n3492100 0.9 1026420
17:00−9n249797 0.6 1027278
20:00−10nnw139898 1.1 102978
27 january, thu
thu2723:00−12wsw119896 0.3 103124
02:00−12sw019891 0.4 103122
05:00−9nnw139791 0.1 102899
08:00−11w019881 0.2 102934
11:00−5nnw238987 0.1 1027306
14:00−3nnw228984 0.1 1025355
17:00−7nnw1110089 0.0 102518
20:00−8sw119985 0.1 102533
28 january, fri
fri2823:00−9ssw1299100 0.0 102520
02:00−8ssw129752 0.0 102323
05:00−7ssw1287100 0.0 102018
08:00−6ssw2280100 0.0 101915
11:00−1n248150 0.0 1018258
14:00−1n359786 0.0 1018445
17:00−5n359833 0.0 1021127
20:00−9sse129756 0.0 102428